Burbank, CA

11:37 AM PDT on October 22, 2017 (GMT -0700)
Burbank-Glendale-Pasadena

Weather History for KBUR - February, 2013

Change the Weather History Date:

Friday, February 8, 2013

  Actual Average Record
Temperature  
Mean Temperature 46 °F 56 °F  
Max Temperature 52 °F 68 °F 90 °F (1996)
Min Temperature 40 °F 43 °F 33 °F (1948)
Degree Days  
Heating Degree Days 19 10  
Month to date heating degree days 62 80  
Since 1 July heating degree days 841 963  
Cooling Degree Days 0 0  
Month to date cooling degree days 2 0  
Year to date cooling degree days 2 2  
Moisture  
Dew Point 37 °F    
Average Humidity 66    
Maximum Humidity 82    
Minimum Humidity 50    
Precipitation  
Precipitation 0.09 in 0.16 in 4.50 in (1993)
Month to date precipitation 0.09 1.17  
Year to date precipitation 0.86 4.70  
Since 1 July precipitation 3.66  
Sea Level Pressure  
Sea Level Pressure 29.91 in    
Wind  
Wind Speed 5 mph (SW)    
Max Wind Speed 16 mph    
Max Gust Speed 23 mph    
Visibility 10 miles    
Events Rain , Hail    
T = Trace of Precipitation, MM = Missing Value Source: NWS Daily Summary

Daily Weather History Graph

Daily Weather History Graph

Search for Another Location

Airport or City:

Trip Planner

Search our weather history database for the weather conditions in past years. The results will help you decide how hot, cold, wet, or windy it might be!

Date:

Astronomy

Feb. 08, 2013 Rise Set
Actual Time 6:44 AM PST 5:30 PM PST
Civil Twilight 6:18 AM PST 5:56 PM PST
Nautical Twilight 5:49 AM PST 6:26 PM PST
Astronomical Twilight 5:19 AM PST 6:55 PM PST
Moon 5:15 AM PST (2/8) 4:10 PM PST (2/8)
Length of Visible Light 11h 37m
Length of Day
10h 46m
Waning Crescent, 3% of the Moon is Illuminated
Feb 8
Waning Crescent
Feb 9
New
Feb 17
First Quarter
Feb 25
Full
Mar 4
Last Quarter

Hourly Weather History & Observations

Time (PST) Temp. Windchill Dew Point Humidity Pressure Visibility Wind Dir Wind Speed Gust Speed Precip Events Conditions
12:00 AM 51.8 °F - 42.8 °F 71% 29.97 in 10.0 mi SE 6.9 mph - N/A   Overcast
12:53 AM 51.1 °F - 42.1 °F 71% 29.95 in 10.0 mi Variable 5.8 mph - N/A   Overcast
1:01 AM 50.0 °F - 41.0 °F 71% 29.96 in 10.0 mi West 6.9 mph - N/A   Mostly Cloudy
1:53 AM 48.9 °F - 39.0 °F 69% 29.94 in 10.0 mi WSW 9.2 mph - N/A   Partly Cloudy
2:53 AM 46.9 °F - 37.0 °F 68% 29.93 in 10.0 mi West 4.6 mph - N/A   Clear
3:53 AM 46.9 °F - 37.0 °F 68% 29.93 in 10.0 mi Calm Calm - N/A   Scattered Clouds
4:53 AM 46.0 °F 43.9 °F 36.0 °F 68% 29.93 in 10.0 mi SW 4.6 mph - N/A   Scattered Clouds
5:53 AM 45.0 °F - 36.0 °F 71% 29.94 in 10.0 mi Calm Calm - N/A   Partly Cloudy
6:39 AM 44.6 °F - 35.6 °F 71% 29.96 in 10.0 mi Calm Calm - N/A   Mostly Cloudy
6:53 AM 46.0 °F - 36.0 °F 68% 29.95 in 10.0 mi Calm Calm - N/A   Overcast
7:31 AM 46.4 °F 44.3 °F 35.6 °F 66% 29.97 in 10.0 mi East 4.6 mph - N/A   Mostly Cloudy
7:53 AM 46.9 °F - 37.0 °F 68% 29.96 in 10.0 mi SE 4.6 mph - N/A   Overcast
8:53 AM 48.9 °F - 36.0 °F 61% 29.95 in 10.0 mi Calm Calm - N/A   Mostly Cloudy
9:53 AM 48.9 °F - 36.0 °F 61% 29.95 in 10.0 mi Calm Calm - N/A   Mostly Cloudy
10:53 AM 51.1 °F - 33.1 °F 50% 29.93 in 10.0 mi Variable 6.9 mph - N/A   Overcast
11:53 AM 51.1 °F - 35.1 °F 54% 29.91 in 10.0 mi SSE 4.6 mph - N/A   Overcast
12:53 PM 50.0 °F - 39.0 °F 66% 29.87 in 10.0 mi SSE 9.2 mph - 0.02 in   Mostly Cloudy
1:53 PM 48.9 °F - 37.9 °F 66% 29.86 in 9.0 mi WSW 16.1 mph - 0.00 in Rain , Hail Heavy Rain
2:09 PM 44.6 °F 43.1 °F 35.6 °F 71% 29.87 in 8.0 mi South 3.5 mph - 0.05 in Rain Light Rain
2:53 PM 50.0 °F - 33.1 °F 52% 29.85 in 10.0 mi Calm Calm - 0.05 in   Scattered Clouds
3:53 PM 50.0 °F - 37.0 °F 61% 29.84 in 10.0 mi East 6.9 mph - N/A   Mostly Cloudy
4:53 PM 48.0 °F - 35.1 °F 61% 29.85 in 10.0 mi West 9.2 mph 18.4 mph N/A   Overcast
5:53 PM 44.1 °F 39.0 °F 36.0 °F 73% 29.87 in 7.0 mi NNW 9.2 mph 18.4 mph 0.01 in Rain Heavy Rain
6:32 PM 44.6 °F 42.2 °F 37.4 °F 76% 29.88 in 10.0 mi West 4.6 mph - 0.01 in   Overcast
6:53 PM 44.1 °F - 37.0 °F 76% 29.87 in 10.0 mi Calm Calm - 0.01 in   Mostly Cloudy
7:53 PM 43.0 °F 39.5 °F 37.0 °F 80% 29.87 in 10.0 mi NNW 5.8 mph - N/A   Partly Cloudy
8:53 PM 43.0 °F 39.5 °F 37.0 °F 80% 29.87 in 10.0 mi WNW 5.8 mph - N/A   Partly Cloudy
9:53 PM 43.0 °F - 36.0 °F 76% 29.89 in 10.0 mi Calm Calm - N/A   Clear
10:53 PM 42.1 °F - 35.1 °F 76% 29.90 in 10.0 mi Calm Calm - N/A   Partly Cloudy
11:53 PM 39.9 °F 36.7 °F 34.0 °F 79% 29.91 in 10.0 mi WNW 4.6 mph - N/A   Partly Cloudy